Pineville, WV

3:36 AM EDT on May 23, 2018 (GMT -0400)
Pineville

Weather History for KI16 - June, 2014

Change the Weather History Date:

Monday, June 23, 2014

  Actual Average (KBKW) Record (KBKW)
Temperature  
Mean Temperature 76 °F -  
Max Temperature 90 °F 76 °F 91 °F (1931)
Min Temperature 62 °F 57 °F 39 °F (1915)
Cooling Degree Days 11    
Growing Degree Days 26 (Base 50)    
Moisture  
Dew Point 68 °F    
Average Humidity 85    
Maximum Humidity 100    
Minimum Humidity 48    
Precipitation  
Precipitation 0.00 in - - ()
Sea Level Pressure  
Sea Level Pressure 30.11 in    
Wind  
Wind Speed - (North)    
Max Wind Speed -    
Max Gust Speed -    
Visibility 8 miles    
Events Rain    
Averages and records for this station are not official NWS values.
T = Trace of Precipitation, MM = Missing Value Source: NWS Daily Summary

Daily Weather History Graph

Daily Weather History Graph

Search for Another Location

Airport or City:

Astronomy

Jun. 23, 2014 Rise Set
Actual Time 6:05 AM EDT 8:51 PM EDT
Civil Twilight 5:34 AM EDT 9:22 PM EDT
Nautical Twilight 4:55 AM EDT 10:01 PM EDT
Astronomical Twilight 4:11 AM EDT 10:45 PM EDT
Moon 3:27 AM EDT 5:33 PM EDT
Length of Visible Light 15h 48m
Length of Day
14h 45m
Waning Crescent, 13% of the Moon is Illuminated
Jun 23
Waning Crescent
Jun 27
New
Jul 5
First Quarter
Jul 12
Full
Jul 18
Last Quarter

Hourly Weather History & Observations

Time (EDT) Temp. Heat Index Dew Point Humidity Pressure Visibility Wind Dir Wind Speed Gust Speed Precip Events Conditions
12:15 AM 65.8 °F - 65.8 °F 100% 30.08 in 7.0 mi North - - N/A   Clear
12:35 AM 65.7 °F - 65.7 °F 100% 30.08 in 5.0 mi North - - N/A   Scattered Clouds
12:55 AM 66.0 °F - 66.0 °F 100% 30.08 in 7.0 mi North - - N/A   Scattered Clouds
1:15 AM 65.7 °F - 65.7 °F 100% 30.08 in 7.0 mi North - - N/A   Scattered Clouds
1:35 AM 65.5 °F - 65.5 °F 100% 30.07 in 5.0 mi North - - N/A   Scattered Clouds
1:55 AM 65.3 °F - 65.3 °F 100% 30.06 in 5.0 mi North - - N/A   Clear
2:15 AM 65.5 °F - 65.5 °F 100% 30.06 in 4.0 mi North - - N/A   Clear
2:35 AM 65.3 °F - 65.3 °F 100% 30.06 in 3.0 mi North - - N/A   Clear
2:55 AM 65.3 °F - 65.3 °F 100% 30.06 in 4.0 mi North - - N/A   Clear
3:15 AM 64.8 °F - 64.8 °F 100% 30.06 in 3.0 mi North - - N/A   Clear
3:35 AM 64.4 °F - 64.4 °F 100% 30.06 in 4.0 mi North - - N/A   Clear
3:55 AM 64.2 °F - 64.2 °F 100% 30.06 in 4.0 mi North - - N/A   Clear
4:15 AM 63.7 °F - 63.7 °F 100% 30.06 in 4.0 mi North - - N/A   Clear
4:35 AM 63.5 °F - 63.5 °F 100% 30.06 in 4.0 mi North - - N/A   Clear
4:55 AM 63.5 °F - 63.5 °F 100% 30.07 in 5.0 mi North - - N/A   Clear
5:15 AM 62.2 °F - 62.2 °F 100% 30.08 in 5.0 mi North - - N/A   Clear
5:35 AM 62.6 °F - 62.6 °F 100% 30.09 in 5.0 mi North - - N/A   Clear
5:55 AM 62.6 °F - 62.6 °F 100% 30.09 in 4.0 mi North - - N/A   Clear
6:15 AM 62.6 °F - 62.6 °F 100% 30.10 in 3.0 mi North - - N/A   Clear
6:35 AM 62.6 °F - 62.6 °F 100% 30.11 in 3.0 mi North - - N/A   Clear
6:55 AM 62.6 °F - 62.6 °F 100% 30.12 in 4.0 mi North - - N/A   Clear
7:15 AM 63.1 °F - 63.1 °F 100% 30.12 in 5.0 mi North - - N/A   Clear
7:35 AM 64.0 °F - 64.0 °F 100% 30.12 in 7.0 mi North - - N/A   Clear
7:55 AM 64.9 °F - 64.9 °F 100% 30.12 in 7.0 mi North - - N/A   Clear
8:15 AM 66.2 °F - 66.2 °F 100% 30.13 in 10.0 mi North - - N/A   Clear
8:35 AM 69.1 °F - 69.1 °F 100% 30.13 in 10.0 mi North - - N/A   Clear
8:55 AM 72.3 °F - 68.9 °F 89% 30.13 in 10.0 mi North - - N/A   Clear
9:15 AM 74.3 °F - 68.7 °F 83% 30.13 in 10.0 mi North - - N/A   Clear
9:35 AM 76.1 °F - 68.7 °F 78% 30.13 in 10.0 mi North - - N/A   Clear
9:55 AM 77.4 °F - 69.3 °F 76% 30.14 in 10.0 mi North - - N/A   Clear
10:15 AM 78.8 °F - 69.8 °F 74% 30.13 in 10.0 mi North - - N/A   Clear
10:35 AM 80.6 °F 84.1 °F 70.3 °F 71% 30.13 in 10.0 mi North - - N/A   Clear
10:55 AM 81.9 °F 85.8 °F 70.5 °F 68% 30.13 in 10.0 mi North - - N/A   Clear
11:15 AM 83.5 °F 88.2 °F 70.9 °F 66% 30.12 in 10.0 mi North - - N/A   Clear
11:35 AM 83.7 °F 87.7 °F 69.8 °F 63% 30.12 in 10.0 mi North - - N/A   Clear
11:55 AM 84.6 °F 88.5 °F 69.4 °F 60% 30.12 in 10.0 mi North - - N/A   Clear
12:15 PM 85.3 °F 89.1 °F 69.1 °F 58% 30.13 in 10.0 mi North - - N/A   Clear
12:35 PM 86.0 °F 90.4 °F 69.4 °F 58% 30.12 in 10.0 mi North - - N/A   Scattered Clouds
12:55 PM 87.1 °F 90.9 °F 68.7 °F 54% 30.12 in 10.0 mi North - - N/A   Mostly Cloudy
1:15 PM 88.0 °F 92.1 °F 69.1 °F 53% 30.12 in 10.0 mi North - - N/A   Scattered Clouds
1:35 PM 86.5 °F 90.7 °F 69.1 °F 56% 30.11 in 10.0 mi North - - N/A   Mostly Cloudy
1:55 PM 87.4 °F 91.2 °F 68.2 °F 53% 30.12 in 10.0 mi North - - N/A   Scattered Clouds
2:15 PM 90.0 °F 93.6 °F 68.0 °F 48% 30.12 in 10.0 mi North - - N/A   Mostly Cloudy
2:35 PM 87.3 °F 91.2 °F 68.9 °F 54% 30.11 in 10.0 mi North - - N/A   Mostly Cloudy
2:55 PM 88.0 °F 92.5 °F 69.3 °F 54% 30.11 in 10.0 mi North - - N/A   Scattered Clouds
3:15 PM 84.4 °F 91.0 °F 73.4 °F 69% 30.10 in 10.0 mi North - - N/A   Mostly Cloudy
3:55 PM 88.0 °F 93.4 °F 70.3 °F 56% 30.09 in 10.0 mi North - - N/A   Scattered Clouds
4:15 PM 86.4 °F 90.4 °F 69.1 °F 56% 30.09 in 10.0 mi North - - N/A   Mostly Cloudy
4:35 PM 81.9 °F 85.4 °F 69.4 °F 66% 30.09 in 10.0 mi North - - N/A   Mostly Cloudy
4:55 PM 84.6 °F 89.1 °F 70.2 °F 62% 30.09 in 10.0 mi North - - N/A   Mostly Cloudy
5:15 PM 79.7 °F - 72.7 °F 79% 30.09 in 10.0 mi North - - N/A   Scattered Clouds
5:35 PM 79.3 °F - 72.9 °F 80% 30.08 in 10.0 mi North - - N/A   Scattered Clouds
5:55 PM 77.7 °F - 72.7 °F 84% 30.08 in 10.0 mi North - - N/A   Mostly Cloudy
6:15 PM 77.2 °F - 72.7 °F 86% 30.08 in 10.0 mi North - - N/A   Mostly Cloudy
6:35 PM 79.0 °F - 72.5 °F 80% 30.08 in 10.0 mi North - - N/A Rain Light Rain
6:55 PM 78.8 °F - 73.0 °F 82% 30.09 in 10.0 mi North - - N/A   Scattered Clouds
7:15 PM 77.2 °F - 72.9 °F 86% 30.10 in 10.0 mi North - - N/A   Clear
7:35 PM 76.6 °F - 72.0 °F 85% 30.10 in 10.0 mi North - - N/A   Clear
7:55 PM 74.8 °F - 71.8 °F 90% 30.11 in 10.0 mi North - - N/A   Clear
8:15 PM 74.8 °F - 71.6 °F 90% 30.11 in 10.0 mi North - - N/A   Scattered Clouds
8:35 PM 74.3 °F - 71.6 °F 91% 30.12 in 10.0 mi North - - N/A   Overcast
8:55 PM 74.1 °F - 71.6 °F 92% 30.12 in 10.0 mi North - - N/A   Overcast
9:15 PM 73.6 °F - 71.8 °F 94% 30.13 in 10.0 mi North - - N/A   Overcast
9:35 PM 73.2 °F - 71.6 °F 95% 30.13 in 10.0 mi North - - N/A   Overcast
9:55 PM 72.9 °F - 71.4 °F 95% 30.14 in 10.0 mi North - - N/A   Overcast
10:15 PM 72.7 °F - 71.2 °F 95% 30.14 in 10.0 mi North - - N/A Rain Light Rain
10:35 PM 72.0 °F - 71.1 °F 97% 30.14 in 10.0 mi North - - N/A Rain Light Rain
10:55 PM 71.6 °F - 71.1 °F 98% 30.15 in 10.0 mi North - - N/A   Mostly Cloudy
11:15 PM 71.6 °F - 70.9 °F 98% 30.15 in 10.0 mi North - - N/A   Mostly Cloudy
11:35 PM 71.4 °F - 70.7 °F 98% 30.16 in 10.0 mi North - - N/A   Scattered Clouds
11:55 PM 71.1 °F - 70.7 °F 99% 30.16 in 7.0 mi North - - N/A   Clear